Home   Weather   Kemi   Past weeks

Flag for Finland Past Weather in Kemi, Finland — Yesterday and Last 2 Weeks

Now
46 °F

Sunny.


Feels Like: 45 °F
Forecast: 46 / 61 °F
Wind: 3 mph from Northeast

Location: Kemi Airport

Current Time: Jul 21, 2017 at 5:53:25 am

Latest Report: Jul 21, 2017 at 5:20 am


Visibility: 10 mi

Pressure: 30.04 "Hg

Humidity: 100%

Dew Point: 46 °F

Location of KemiLocation

Past Weather in Kemi — Graph

°F

Kemi Temperature Yesterday

Maximum temperature yesterday: 59 °F (at 4:20 pm)
Minimum temperature yesterday: 52 °F (at 12:20 am)
Average temperature yesterday: 55 °F

High & Low Weather Summary for the Past Weeks

 TemperatureHumidityPressure
High70 °F (Jul 10, 12:50 pm)100% (Jul 7, 12:50 am)30.04 "Hg (Jul 7, 12:50 am)
Low36 °F (Jul 7, 2:50 am)37% (Jul 8, 12:20 pm)29.39 "Hg (Jul 12, 9:50 pm)
Average57 °F79%29.76 "Hg
* Reported Jul 6 4:20 am — Jul 21 4:20 am, Kemi. Weather by CustomWeather, © 2017

Note: Actual official high and low records may vary slightly from our data, if they occured in-between our weather recording intervals... More about our weather records

Advertising

Kemi Weather History for the Previous 24 Hours

Scroll right to see more
 ConditionsComfort  
Time TempWeatherWind HumidityBarometerVisibility
4:20 am
Fri, Jul 21
46 °FSunny.3 mph100%30.04 "Hg10 mi
3:50 am46 °FSunny.5 mph100%30.01 "Hg10 mi
3:20 am48 °FClear.6 mph94%30.01 "Hg10 mi
2:50 am48 °FClear.7 mph94%30.01 "Hg10 mi
2:20 am48 °FClear.6 mph100%30.01 "Hg10 mi
1:50 am48 °FClear.5 mph94%30.01 "Hg10 mi
1:20 am50 °FClear.3 mph94%30.01 "Hg10 mi
12:50 am52 °FClear.6 mph88%29.98 "Hg10 mi
12:20 am50 °FClear.5 mph94%29.98 "Hg10 mi
11:50 pm
Thu, Jul 20
54 °FPassing clouds.6 mph88%29.98 "HgN/A
11:20 pm54 °FBroken clouds.7 mph88%29.98 "HgN/A
10:50 pm55 °FBroken clouds.8 mph82%29.98 "HgN/A
10:20 pm57 °FMostly cloudy.8 mph82%29.98 "HgN/A
9:50 pm55 °FSprinkles. Overcast.5 mph94%29.95 "HgN/A
9:20 pm57 °FLight rain. Partly sunny.10 mph82%29.95 "HgN/A
8:50 pm59 °FPartly sunny.8 mph77%29.95 "HgN/A
8:20 pm59 °FPartly sunny.9 mph77%29.95 "HgN/A
7:50 pm59 °FScattered clouds.9 mph77%29.95 "HgN/A
7:20 pm59 °FPartly sunny.9 mph77%29.95 "HgN/A
6:20 pm59 °FBroken clouds.13 mph77%29.95 "HgN/A
5:50 pm59 °FBroken clouds.10 mph77%29.92 "HgN/A
5:20 pm57 °FBroken clouds.10 mph77%29.92 "HgN/A
4:50 pm57 °FPartly sunny.9 mph82%29.92 "HgN/A
4:20 pm59 °FPartly sunny.12 mph77%29.92 "HgN/A
3:50 pm57 °FPartly sunny.12 mph82%29.92 "HgN/A
2:50 pm55 °FOvercast.9 mph82%29.92 "HgN/A
2:20 pm55 °FOvercast.10 mph82%29.95 "HgN/A
1:50 pm55 °FOvercast.10 mph82%29.95 "HgN/A
1:20 pm55 °FOvercast.12 mph82%29.95 "HgN/A
12:50 pm54 °FOvercast.14 mph88%29.92 "HgN/A
12:20 pm54 °FOvercast.13 mph82%29.92 "HgN/A
11:50 am54 °FOvercast.14 mph82%29.92 "HgN/A
11:20 am54 °FOvercast.13 mph82%29.92 "HgN/A
10:50 am54 °FOvercast.13 mph82%29.92 "HgN/A
10:20 am54 °FOvercast.13 mph82%29.92 "HgN/A
9:50 am54 °FOvercast.13 mph82%29.92 "HgN/A
9:20 am54 °FOvercast.12 mph82%29.92 "HgN/A
8:50 am54 °FOvercast.15 mph82%29.92 "HgN/A
8:20 am54 °FOvercast.13 mph82%29.92 "HgN/A
7:50 am54 °FOvercast.13 mph82%29.92 "HgN/A
7:20 am54 °FPartly sunny.15 mph82%29.92 "HgN/A
6:50 am54 °FMore clouds than sun.13 mph82%29.92 "HgN/A
6:20 am52 °FMore clouds than sun.13 mph88%29.92 "HgN/A
5:50 am52 °FOvercast.13 mph88%29.92 "HgN/A
5:20 am52 °FMostly cloudy.13 mph88%29.92 "HgN/A
Weather by CustomWeather, © 2017

See weather overviewHow to use our weather pages